Hill City, KS

11:56 PM CDT on June 26, 2017 (GMT -0500)
Hill City Municipal

Weather History for KHLC - October, 2012

Change the Weather History Date:

Monday, October 22, 2012

  Actual Average Record
Temperature  
Mean Temperature 54 °F 52 °F  
Max Temperature 62 °F 66 °F 92 °F (2003)
Min Temperature 46 °F 37 °F 21 °F (1987)
Degree Days  
Heating Degree Days 10    
Growing Degree Days 4 (Base 50)    
Moisture  
Dew Point 46 °F    
Average Humidity 74    
Maximum Humidity 97    
Minimum Humidity 63    
Precipitation  
Precipitation 0.00 in 0.05 in 1.36 in (2008)
Month to date precipitation 1.01 1.17  
Year to date precipitation 9.72 20.93  
Sea Level Pressure  
Sea Level Pressure 29.80 in    
Wind  
Wind Speed 11 mph (North)    
Max Wind Speed 18 mph    
Max Gust Speed 24 mph    
Visibility 8 miles    
Events      
T = Trace of Precipitation, MM = Missing Value Source: NWS Daily Summary

Daily Weather History Graph

Daily Weather History Graph

Search for Another Location

Airport or City:

Trip Planner

Search our weather history database for the weather conditions in past years. The results will help you decide how hot, cold, wet, or windy it might be!

Date:

Astronomy

Oct. 22, 2012 Rise Set
Actual Time 7:57 AM CDT 6:49 PM CDT
Civil Twilight 7:29 AM CDT 7:17 PM CDT
Nautical Twilight 6:58 AM CDT 7:48 PM CDT
Astronomical Twilight 6:27 AM CDT 8:19 PM CDT
Moon 2:56 PM CDT (10/22) 12:48 AM CDT (10/22)
Length of Visible Light 11h 47m
Length of Day
10h 52m
First Quarter, 56% of the Moon is Illuminated
Oct 22
First Quarter
Oct 29
Full
Nov 6
Last Quarter
Nov 13
New
Nov 20
First Quarter

Hourly Weather History & Observations

Time (CDT) Temp. Dew Point Humidity Pressure Visibility Wind Dir Wind Speed Gust Speed Precip Events Conditions
12:53 AM 54.0 °F 43.0 °F 66% 29.73 in 10.0 mi North 15.0 mph - N/A   Clear
1:53 AM 55.0 °F 43.0 °F 64% 29.72 in 10.0 mi North 18.4 mph - N/A   Mostly Cloudy
2:53 AM 54.0 °F 43.0 °F 66% 29.72 in 10.0 mi North 17.3 mph - N/A   Mostly Cloudy
3:40 AM 55.4 °F 44.6 °F 67% 29.77 in 10.0 mi North 15.0 mph - N/A   Overcast
3:53 AM 55.0 °F 44.1 °F 67% 29.73 in 10.0 mi North 17.3 mph - N/A   Overcast
4:51 AM 55.4 °F 44.6 °F 67% 29.79 in 10.0 mi NNW 11.5 mph - N/A   Overcast
4:53 AM 55.0 °F 45.0 °F 69% 29.74 in 10.0 mi NNW 10.4 mph - N/A   Overcast
5:24 AM 53.6 °F 44.6 °F 72% 29.79 in 10.0 mi NNW 11.5 mph - N/A   Overcast
5:53 AM 54.0 °F 46.9 °F 77% 29.78 in 10.0 mi NW 5.8 mph - N/A   Overcast
6:31 AM 53.6 °F 46.4 °F 77% 29.81 in 9.0 mi NNW 9.2 mph - N/A   Overcast
6:53 AM 53.1 °F 46.9 °F 80% 29.79 in 10.0 mi North 17.3 mph 24.2 mph N/A   Overcast
7:53 AM 52.0 °F 46.0 °F 80% 29.82 in 10.0 mi North 12.7 mph - N/A   Overcast
8:53 AM 52.0 °F 46.0 °F 80% 29.86 in 7.0 mi NNW 13.8 mph - N/A   Overcast
9:53 AM 52.0 °F 46.0 °F 80% 29.87 in 8.0 mi NNW 11.5 mph - N/A   Overcast
10:45 AM 53.6 °F 46.4 °F 77% 29.89 in 7.0 mi NNW 11.5 mph - N/A   Overcast
10:53 AM 53.1 °F 46.0 °F 77% 29.88 in 7.0 mi NNW 11.5 mph - N/A   Overcast
1:53 PM 59.0 °F 48.0 °F 67% 29.83 in 7.0 mi North 12.7 mph - N/A   Overcast
2:53 PM 59.0 °F 48.0 °F 67% 29.82 in 7.0 mi Variable 3.5 mph - N/A   Overcast
3:53 PM 60.1 °F 48.9 °F 67% 29.82 in 8.0 mi Calm Calm - N/A   Overcast
4:53 PM 61.0 °F 48.9 °F 64% 29.81 in 8.0 mi Calm Calm - N/A   Overcast
5:27 PM 60.8 °F 48.2 °F 63% 29.83 in 8.0 mi North 3.5 mph - N/A   Overcast
5:53 PM 61.0 °F 48.9 °F 64% 29.80 in 8.0 mi Calm Calm - N/A   Mostly Cloudy
6:53 PM 55.9 °F 48.0 °F 75% 29.80 in 6.0 mi Calm Calm - N/A   Haze
7:53 PM 50.0 °F 46.0 °F 86% 29.82 in 6.0 mi Calm Calm - N/A   Mostly Cloudy
8:53 PM 55.0 °F 48.9 °F 80% 29.80 in 8.0 mi Calm Calm - N/A   Overcast
9:38 PM 53.6 °F 48.2 °F 82% 29.83 in 8.0 mi East 4.6 mph - N/A   Scattered Clouds
9:53 PM 50.0 °F 46.0 °F 86% 29.82 in 7.0 mi East 3.5 mph - N/A   Clear
10:53 PM 48.0 °F 46.0 °F 93% 29.81 in 6.0 mi ENE 6.9 mph - N/A   Clear
11:53 PM 46.9 °F 46.0 °F 97% 29.80 in 5.0 mi ENE 6.9 mph - N/A   Clear